Terminal Aerodrome Forecast
Issued by NWS Charleston, WV

Current Version | Previous Version | Graphics & Text | Print | Product List | Glossary On
Versions: 1 2 3 4 5 6 7 8 9 10 11 12 13 14 15 16 17 18 19 20 21 22 23 24 25 26 27
000
FTUS41 KRLX 292342 CCA
TAFHTS
TAF COR
KHTS 292342Z 3000/3024 23004KT P6SM SCT050
     FM300200 25004KT P6SM VCTS BKN045CB
     FM300700 VRB03KT 5SM SHRA BR VCTS BKN040CB
     FM300800 VRB03KT 3SM BR VCTS BKN040CB
     FM301000 VRB03KT 3SM BR BKN040
     FM301100 31004KT 6SM BR BKN040
     FM301300 32004KT P6SM SCT045=

USA.gov is the U.S. government's official web portal to all federal, state and local government web resources and services.